Showing default

OPS 5111 (NAVSTAR 1), 10684

Orbit data source: Space-Track

OPS 5111 (NAVSTAR 1), 10684 is a payload satellite owned by SAMSO (US) in MEO that was launched on Wed, 22 Feb 1978 UTC via an ATLAS F/SVS launch vehicle from the Air Force Western Test Range (AFWTR). Payload-class satellites include a variety of spacecraft equipped with specific instruments for various scientific and technological missions. These include communications satellites like Starlink; space stations such as the ISS; scientific satellites like the Hubble; Earth observation satellites from companies like Planet Labs, Umbra, and HawkEye 360; GPS; miniature CubeSats for education and research; and military/defense satellites.

Loading next visibility...
Identifier
10684, 1978-020A
Orbit
MEO
Country
Flag of USUS
Related business
Manufacturer
Rockwell/SB
Mission
Non-operational spacecraft
Bus & Motor
GPS, STAR 27
Mass
775 kg wet, 409 kg dry
Launch date (UTC)
1978-02-22 (48 years ago)
Launch vehicle
ATLAS F/SVS
Launch site
Air Force Western Test Range (AFWTR)
Object type
Payload
Rocket body
Debris
Shape & HBR
Unknown
Radar Cross Section
Medium (>0.1 m² and <1 m²)

Expand to show TLE details & history
Last TLE update: 3 days ago

TLE from 3 days ago
0 OPS 5111 (NAVSTAR 1)
1 10684U 78020A   26092.18975692 -.00000050  00000-0  00000-0 0  9998
2 10684  64.2961  54.5964 0081164 219.1725 140.2083  1.98072338334930
Epoch: 2026-04-02T04:33Z
TLE epoch observation values (Epoch: 2026-04-02T04:33:14.997Z)
Latitude
-0.00001°
Longitude
155.72165°
Altitude
20,572.854 km
Speed
3.834 km/s
True Right ascension
03h 38m 18s
True Declination
0° 00' 00"
Sunlit
Object was in daylight at epoch
Visualization orbit readout
Latitude
Unknown
Longitude
Unknown
Altitude
Unknown
Speed
Unknown
Apparent Right ascension
Unknown
Apparent Declination
Unknown
Sunlit
N/A
Visualization observer readout
Local Sidereal Time
08:51:22
Azimuth
Unknown
Elevation
Unknown
Doppler factor
Unknown
Orbital elements
Apogee altitude
20,621.49 km
Perigee altitude
20,186.739 km
Semi-major axis
26,782.251 km
Eccentricity
0.00812
Inclination
64.2961°
RAAN
54.5964°
Arg. of periapsis
219.1725°
True anomaly
140.79893°
Mean anomaly
140.2083°
Eccentric anomaly
140.50407°
Mean motion
0.49519 °/min
Orbital period
726.99 mins
BSTAR
0
Loading maneuver chart data...
Computing Atmospheric mass density...
Loading historical data...
Loading historical data...
Loading historical data...
Loading historical data...
Loading historical data...
Loading historical data...
Loading historical data...
Other satellites on launch #20 in the year 1978 (1978-02-22 UTC)

Documentation

Showing up to 5 results
|